| time (UTC) | temp F | wind direction | speed MPH | gust MPH | rain 1hr in | rain 24hr in | rain mn in | humidity % | barometer mb |
| 20260831224904 | 80 | 260 | 0.0 | 0.0 | 0.00 | 0.01 | 0.00 | 83 | 1014.4 |
| 20260831224405 | 80 | 260 | 0.0 | 0.0 | 0.00 | 0.01 | 0.00 | 82 | 1014.4 |
| 20260831222904 | 81 | 260 | 0.0 | 0.0 | 0.00 | 0.01 | 0.00 | 76 | 1014.4 |
| 20260831222404 | 82 | 260 | 0.0 | 0.0 | 0.00 | 0.01 | 0.00 | 75 | 1014.5 |
| 20260831221905 | 82 | 260 | 0.0 | 0.0 | 0.00 | 0.01 | 0.00 | 74 | 1014.6 |
| 20260831221405 | 82 | 260 | 0.0 | 0.0 | 0.00 | 0.01 | 0.00 | 73 | 1014.5 |
| 20260831220904 | 82 | 260 | 0.0 | 0.0 | 0.00 | 0.01 | 0.00 | 73 | 1014.6 |
| 20260831220405 | 83 | 260 | 0.0 | 0.0 | 0.00 | 0.01 | 0.00 | 71 | 1014.7 |
| 20260831215904 | 83 | 260 | 0.0 | 0.0 | 0.00 | 0.01 | 0.00 | 71 | 1014.7 |
| 20260831215404 | 83 | 260 | 0.0 | 3.0 | 0.00 | 0.01 | 0.00 | 70 | 1014.8 |
| 20260831214904 | 83 | 257 | 0.0 | 0.0 | 0.00 | 0.01 | 0.00 | 70 | 1014.9 |
| 20260831213905 | 83 | 257 | 0.0 | 0.0 | 0.00 | 0.01 | 0.00 | 75 | 1014.8 |
| 20260831212904 | 83 | 257 | 0.0 | 0.0 | 0.00 | 0.01 | 0.00 | 74 | 1014.9 |
| 20260831212405 | 83 | 257 | 0.0 | 1.0 | 0.00 | 0.01 | 0.00 | 74 | 1014.9 |
| 20260831211904 | 83 | 257 | 0.0 | 1.0 | 0.00 | 0.01 | 0.00 | 74 | 1014.8 |
| 20260831210905 | 83 | 258 | 0.0 | 0.0 | 0.00 | 0.01 | 0.00 | 74 | 1014.7 |
| 20260831210405 | 83 | 258 | 0.0 | 0.0 | 0.00 | 0.01 | 0.00 | 72 | 1014.7 |
| 20260831205905 | 83 | 258 | 0.0 | 0.0 | 0.00 | 0.01 | 0.00 | 73 | 1014.6 |
| 20260831204904 | 82 | 258 | 0.0 | 0.0 | 0.00 | 0.01 | 0.00 | 73 | 1014.7 |
| 20260831204405 | 82 | 258 | 0.0 | 0.0 | 0.00 | 0.01 | 0.00 | 79 | 1014.7 |
| 20260831203905 | 81 | 258 | 0.0 | 0.0 | 0.00 | 0.01 | 0.00 | 81 | 1014.8 |
| 20260831203404 | 81 | 258 | 0.0 | 0.0 | 0.00 | 0.02 | 0.00 | 80 | 1014.9 |
| 20260831201904 | 81 | 258 | 0.0 | 0.0 | 0.00 | 0.02 | 0.00 | 76 | 1014.7 |
| 20260831201404 | 82 | 258 | 0.0 | 0.0 | 0.00 | 0.02 | 0.00 | 71 | 1014.6 |
| 20260831200905 | 82 | 258 | 0.0 | 0.0 | 0.00 | 0.02 | 0.00 | 70 | 1014.6 |
| 20260831195404 | 84 | 258 | 0.0 | 1.0 | 0.00 | 0.02 | 0.00 | 67 | 1014.9 |
| 20260831194904 | 85 | 258 | 0.0 | 5.0 | 0.00 | 0.02 | 0.00 | 65 | 1015.0 |
| 20260831194404 | 85 | 268 | 1.0 | 3.0 | 0.00 | 0.02 | 0.00 | 63 | 1015.0 |
| 20260831193404 | 86 | 311 | 2.0 | 8.0 | 0.00 | 0.02 | 0.00 | 64 | 1015.1 |
| 20260831192904 | 86 | 276 | 1.0 | 5.0 | 0.00 | 0.02 | 0.00 | 64 | 1015.1 |
| 20260831192405 | 87 | 273 | 0.0 | 3.0 | 0.00 | 0.02 | 0.00 | 63 | 1015.1 |
| 20260831191904 | 88 | 254 | 0.0 | 3.0 | 0.00 | 0.02 | 0.00 | 62 | 1015.1 |
| 20260831190905 | 88 | 250 | 0.0 | 0.0 | 0.00 | 0.02 | 0.00 | 63 | 1015.3 |
| 20260831190404 | 88 | 254 | 0.0 | 1.0 | 0.00 | 0.02 | 0.00 | 61 | 1015.3 |
| 20260831185904 | 87 | 257 | 1.0 | 6.0 | 0.00 | 0.02 | 0.00 | 62 | 1015.4 |
| 20260831185404 | 86 | 286 | 0.0 | 1.0 | 0.00 | 0.02 | 0.00 | 64 | 1015.4 |
| 20260831184405 | 86 | 257 | 1.0 | 5.0 | 0.00 | 0.02 | 0.00 | 63 | 1015.5 |
| 20260831183905 | 86 | 270 | 1.0 | 6.0 | 0.00 | 0.02 | 0.00 | 64 | 1015.5 |
| 20260831183404 | 86 | 268 | 1.0 | 14.0 | 0.00 | 0.02 | 0.00 | 65 | 1015.5 |
| 20260831182904 | 86 | 265 | 0.0 | 3.0 | 0.00 | 0.02 | 0.00 | 64 | 1015.5 |
| 20260831182405 | 85 | 249 | 0.0 | 1.0 | 0.00 | 0.02 | 0.00 | 65 | 1015.6 |
| 20260831181904 | 84 | 259 | 0.0 | 0.0 | 0.00 | 0.02 | 0.00 | 70 | 1015.6 |
| 20260831181404 | 84 | 259 | 0.0 | 1.0 | 0.00 | 0.02 | 0.00 | 68 | 1015.6 |
| 20260831180904 | 84 | 255 | 0.0 | 5.0 | 0.00 | 0.02 | 0.00 | 67 | 1015.6 |
| 20260831180405 | 84 | 255 | 2.0 | 6.0 | 0.00 | 0.02 | 0.00 | 66 | 1015.6 |
| 20260831175405 | 85 | 275 | 0.0 | 0.0 | 0.00 | 0.02 | 0.00 | 69 | 1015.6 |
| 20260831174905 | 85 | 277 | 0.0 | 0.0 | 0.00 | 0.02 | 0.00 | 68 | 1015.6 |
| 20260831174404 | 85 | 277 | 0.0 | 0.0 | 0.00 | 0.02 | 0.00 | 68 | 1015.5 |
| 20260831173405 | 86 | 261 | 0.0 | 0.0 | 0.00 | 0.02 | 0.00 | 67 | 1015.6 |
| 20260831172404 | 85 | 207 | 0.0 | 0.0 | 0.00 | 0.02 | 0.00 | 68 | 1015.7 |
| 20260831171904 | 85 | 239 | 0.0 | 0.0 | 0.00 | 0.02 | 0.00 | 64 | 1015.7 |
| 20260831171404 | 85 | 283 | 0.0 | 3.0 | 0.00 | 0.02 | 0.00 | 66 | 1015.7 |
| 20260831170904 | 85 | 234 | 0.0 | 1.0 | 0.00 | 0.02 | 0.00 | 68 | 1015.7 |
| 20260831170404 | 84 | 192 | 0.0 | 5.0 | 0.00 | 0.02 | 0.00 | 68 | 1015.9 |
| 20260831165405 | 84 | 272 | 0.0 | 1.0 | 0.00 | 0.02 | 0.00 | 69 | 1015.9 |
| 20260831164904 | 84 | 269 | 1.0 | 8.0 | 0.00 | 0.02 | 0.00 | 66 | 1016.0 |
| 20260831164404 | 84 | 211 | 0.0 | 5.0 | 0.00 | 0.02 | 0.00 | 68 | 1015.9 |
| 20260831163904 | 84 | 268 | 1.0 | 9.0 | 0.00 | 0.03 | 0.00 | 67 | 1015.9 |
| 20260831162904 | 85 | 200 | 0.0 | 8.0 | 0.00 | 0.03 | 0.00 | 70 | 1015.9 |
| 20260831162404 | 84 | 232 | 0.0 | 0.0 | 0.00 | 0.03 | 0.00 | 73 | 1016.0 |
| 20260831161904 | 84 | 172 | 0.0 | 1.0 | 0.00 | 0.03 | 0.00 | 74 | 1016.0 |
| 20260831160905 | 84 | 231 | 0.0 | 1.0 | 0.00 | 0.03 | 0.00 | 73 | 1016.0 |
| 20260831160404 | 83 | 173 | 0.0 | 0.0 | 0.00 | 0.03 | 0.00 | 77 | 1016.1 |
| 20260831155404 | 82 | 238 | 0.0 | 5.0 | 0.00 | 0.03 | 0.00 | 78 | 1016.2 |
| 20260831154904 | 81 | 223 | 1.0 | 5.0 | 0.00 | 0.03 | 0.00 | 79 | 1016.2 |
| 20260831154404 | 80 | 222 | 0.0 | 1.0 | 0.00 | 0.03 | 0.00 | 80 | 1016.2 |
| 20260831153904 | 80 | 215 | 0.0 | 0.0 | 0.00 | 0.03 | 0.00 | 79 | 1016.3 |
| 20260831153404 | 79 | 253 | 0.0 | 1.0 | 0.00 | 0.03 | 0.00 | 82 | 1016.4 |
| 20260831152904 | 79 | 253 | 0.0 | 5.0 | 0.00 | 0.03 | 0.00 | 83 | 1016.4 |
| 20260831152404 | 78 | 169 | 0.0 | 0.0 | 0.00 | 0.03 | 0.00 | 84 | 1016.5 |
| 20260831151904 | 77 | 169 | 0.0 | 0.0 | 0.00 | 0.03 | 0.00 | 86 | 1016.6 |
| 20260831151408 | 76 | 169 | 0.0 | 0.0 | 0.00 | 0.03 | 0.00 | 87 | 1016.6 |
| 20260831150904 | 76 | 169 | 0.0 | 0.0 | 0.00 | 0.03 | 0.00 | 88 | 1016.6 |
| 20260831150404 | 76 | 169 | 0.0 | 1.0 | 0.00 | 0.03 | 0.00 | 87 | 1016.6 |
| 20260831145905 | 75 | 237 | 0.0 | 0.0 | 0.00 | 0.03 | 0.00 | 88 | 1016.7 |
| 20260831145404 | 75 | 237 | 0.0 | 0.0 | 0.00 | 0.03 | 0.00 | 88 | 1016.9 |
| 20260831144904 | 75 | 237 | 0.0 | 0.0 | 0.00 | 0.03 | 0.00 | 89 | 1016.9 |
| 20260831144404 | 74 | 237 | 0.0 | 0.0 | 0.00 | 0.03 | 0.00 | 90 | 1016.7 |
| 20260831143904 | 73 | 237 | 0.0 | 0.0 | 0.00 | 0.03 | 0.00 | 90 | 1016.8 |
| 20260831143404 | 73 | 238 | 0.0 | 0.0 | 0.00 | 0.03 | 0.00 | 91 | 1016.8 |
| 20260831142904 | 72 | 238 | 0.0 | 0.0 | 0.00 | 0.03 | 0.00 | 90 | 1016.7 |
| 20260831142404 | 72 | 238 | 0.0 | 1.0 | 0.00 | 0.03 | 0.00 | 91 | 1016.7 |
| 20260831141404 | 71 | 177 | 0.0 | 0.0 | 0.00 | 0.03 | 0.00 | 93 | 1016.6 |
| 20260831140904 | 71 | 177 | 0.0 | 0.0 | 0.00 | 0.03 | 0.00 | 94 | 1016.7 |
| 20260831140404 | 70 | 177 | 0.0 | 0.0 | 0.00 | 0.03 | 0.00 | 94 | 1016.7 |
| 20260831135904 | 70 | 177 | 0.0 | 1.0 | 0.00 | 0.03 | 0.00 | 94 | 1016.6 |
| 20260831135404 | 70 | 230 | 0.0 | 0.0 | 0.00 | 0.03 | 0.00 | 95 | 1016.7 |
| 20260831134904 | 69 | 248 | 0.0 | 0.0 | 0.00 | 0.03 | 0.00 | 94 | 1016.7 |
| 20260831134404 | 69 | 248 | 0.0 | 0.0 | 0.00 | 0.03 | 0.00 | 95 | 1016.7 |
| 20260831133904 | 69 | 248 | 0.0 | 0.0 | 0.00 | 0.03 | 0.00 | 95 | 1016.8 |
| 20260831132905 | 69 | 248 | 0.0 | 0.0 | 0.00 | 0.03 | 0.00 | 95 | 1016.9 |
| 20260831132406 | 68 | 248 | 0.0 | 0.0 | 0.00 | 0.03 | 0.00 | 95 | 1016.9 |
| 20260831131904 | 68 | 248 | 0.0 | 0.0 | 0.00 | 0.03 | 0.00 | 95 | 1017.1 |
| 20260831131404 | 68 | 248 | 0.0 | 0.0 | 0.00 | 0.03 | 0.00 | 95 | 1017.1 |
| 20260831130904 | 68 | 248 | 0.0 | 0.0 | 0.00 | 0.03 | 0.00 | 95 | 1017.1 |
| 20260831130404 | 68 | 248 | 0.0 | 0.0 | 0.00 | 0.03 | 0.00 | 95 | 1017.0 |
| 20260831125904 | 68 | 248 | 0.0 | 0.0 | 0.00 | 0.03 | 0.00 | 95 | 1017.0 |
| 20260831125404 | 68 | 248 | 0.0 | 0.0 | 0.00 | 0.03 | 0.00 | 95 | 1017.0 |
| 20260831124904 | 68 | 248 | 0.0 | 0.0 | 0.00 | 0.03 | 0.00 | 95 | 1016.9 |
| 20260831124404 | 68 | 248 | 0.0 | 0.0 | 0.00 | 0.03 | 0.00 | 95 | 1017.0 |
| 20260831123904 | 68 | 248 | 0.0 | 0.0 | 0.00 | 0.03 | 0.00 | 95 | 1016.9 |
| 20260831123404 | 68 | 248 | 0.0 | 0.0 | 0.00 | 0.03 | 0.00 | 95 | 1016.9 |
| 20260831122404 | 67 | 248 | 0.0 | 0.0 | 0.00 | 0.03 | 0.00 | 95 | 1016.9 |
| 20260831121904 | 67 | 248 | 0.0 | 0.0 | 0.00 | 0.03 | 0.00 | 95 | 1017.0 |
| 20260831120904 | 67 | 248 | 0.0 | 0.0 | 0.00 | 0.03 | 0.00 | 95 | 1017.0 |
| 20260831115903 | 67 | 248 | 0.0 | 0.0 | 0.00 | 0.03 | 0.00 | 95 | 1017.1 |
| 20260831114904 | 67 | 248 | 0.0 | 0.0 | 0.00 | 0.03 | 0.00 | 95 | 1017.0 |
| 20260831114404 | 67 | 248 | 0.0 | 0.0 | 0.00 | 0.03 | 0.00 | 95 | 1017.0 |
| 20260831113404 | 67 | 248 | 0.0 | 0.0 | 0.00 | 0.03 | 0.00 | 95 | 1016.9 |
| 20260831112904 | 67 | 248 | 0.0 | 0.0 | 0.00 | 0.03 | 0.00 | 95 | 1016.9 |
| 20260831112404 | 67 | 248 | 0.0 | 0.0 | 0.00 | 0.03 | 0.00 | 95 | 1016.9 |
| 20260831111904 | 67 | 248 | 0.0 | 0.0 | 0.00 | 0.03 | 0.00 | 95 | 1016.9 |
| 20260831111404 | 67 | 248 | 0.0 | 0.0 | 0.00 | 0.03 | 0.00 | 95 | 1016.8 |
| 20260831110904 | 67 | 248 | 0.0 | 0.0 | 0.00 | 0.03 | 0.00 | 95 | 1016.8 |
| 20260831110404 | 67 | 248 | 0.0 | 0.0 | 0.00 | 0.03 | 0.00 | 95 | 1016.7 |
| 20260831105404 | 67 | 248 | 0.0 | 0.0 | 0.00 | 0.03 | 0.00 | 95 | 1016.6 |
| 20260831104904 | 67 | 248 | 0.0 | 0.0 | 0.00 | 0.03 | 0.00 | 95 | 1016.6 |
| 20260831104404 | 67 | 248 | 0.0 | 0.0 | 0.00 | 0.03 | 0.00 | 95 | 1016.5 |
| 20260831103904 | 67 | 248 | 0.0 | 0.0 | 0.00 | 0.03 | 0.00 | 95 | 1016.5 |
| 20260831103404 | 67 | 248 | 0.0 | 0.0 | 0.00 | 0.03 | 0.00 | 95 | 1016.4 |
| 20260831102904 | 67 | 248 | 0.0 | 0.0 | 0.00 | 0.03 | 0.00 | 95 | 1016.4 |
| 20260831101904 | 67 | 248 | 0.0 | 0.0 | 0.00 | 0.03 | 0.00 | 95 | 1016.5 |
| 20260831101404 | 67 | 248 | 0.0 | 0.0 | 0.00 | 0.03 | 0.00 | 95 | 1016.5 |
| 20260831100904 | 67 | 248 | 0.0 | 0.0 | 0.00 | 0.03 | 0.00 | 95 | 1016.5 |
| 20260831100404 | 67 | 248 | 0.0 | 0.0 | 0.00 | 0.03 | 0.00 | 95 | 1016.4 |
| 20260831095904 | 67 | 248 | 0.0 | 0.0 | 0.00 | 0.03 | 0.00 | 95 | 1016.4 |
| 20260831095404 | 67 | 248 | 0.0 | 0.0 | 0.00 | 0.03 | 0.00 | 95 | 1016.3 |
| 20260831094404 | 67 | 248 | 0.0 | 0.0 | 0.00 | 0.03 | 0.00 | 95 | 1016.3 |
| 20260831093903 | 67 | 248 | 0.0 | 0.0 | 0.00 | 0.03 | 0.00 | 95 | 1016.2 |
| 20260831092904 | 67 | 248 | 0.0 | 0.0 | 0.00 | 0.03 | 0.00 | 95 | 1016.3 |
| 20260831091404 | 67 | 248 | 0.0 | 0.0 | 0.00 | 0.03 | 0.00 | 95 | 1016.2 |
| 20260831090904 | 67 | 248 | 0.0 | 0.0 | 0.00 | 0.03 | 0.00 | 95 | 1016.2 |
| 20260831090404 | 67 | 248 | 0.0 | 0.0 | 0.00 | 0.03 | 0.00 | 95 | 1016.2 |
| 20260831085904 | 67 | 248 | 0.0 | 0.0 | 0.00 | 0.03 | 0.00 | 95 | 1016.2 |
| 20260831085404 | 67 | 248 | 0.0 | 0.0 | 0.00 | 0.03 | 0.00 | 95 | 1016.2 |
| 20260831084904 | 67 | 248 | 0.0 | 0.0 | 0.00 | 0.03 | 0.00 | 95 | 1016.3 |
| 20260831084403 | 67 | 248 | 0.0 | 0.0 | 0.00 | 0.03 | 0.00 | 95 | 1016.3 |
| 20260831083904 | 67 | 248 | 0.0 | 0.0 | 0.00 | 0.03 | 0.00 | 95 | 1016.3 |
| 20260831083404 | 67 | 248 | 0.0 | 0.0 | 0.00 | 0.03 | 0.00 | 95 | 1016.3 |
| 20260831082903 | 67 | 248 | 0.0 | 0.0 | 0.00 | 0.03 | 0.00 | 95 | 1016.2 |
| 20260831082403 | 67 | 248 | 0.0 | 0.0 | 0.00 | 0.03 | 0.00 | 95 | 1016.2 |
| 20260831081904 | 67 | 248 | 0.0 | 0.0 | 0.00 | 0.03 | 0.00 | 95 | 1016.1 |
| 20260831081404 | 67 | 248 | 0.0 | 0.0 | 0.00 | 0.03 | 0.00 | 95 | 1016.2 |
| 20260831080404 | 67 | 248 | 0.0 | 0.0 | 0.00 | 0.03 | 0.00 | 95 | 1016.2 |
| 20260831075904 | 67 | 248 | 0.0 | 0.0 | 0.00 | 0.03 | 0.00 | 95 | 1016.2 |
| 20260831075403 | 67 | 248 | 0.0 | 0.0 | 0.00 | 0.03 | 0.00 | 95 | 1016.2 |
| 20260831074403 | 67 | 248 | 0.0 | 0.0 | 0.00 | 0.03 | 0.00 | 94 | 1016.3 |
| 20260831073904 | 67 | 248 | 0.0 | 0.0 | 0.00 | 0.03 | 0.00 | 94 | 1016.3 |
| 20260831073404 | 67 | 248 | 0.0 | 0.0 | 0.00 | 0.03 | 0.00 | 94 | 1016.3 |
| 20260831072904 | 67 | 248 | 0.0 | 0.0 | 0.00 | 0.03 | 0.00 | 94 | 1016.2 |
| 20260831072404 | 67 | 248 | 0.0 | 0.0 | 0.00 | 0.03 | 0.00 | 94 | 1016.3 |
| 20260831071904 | 67 | 248 | 0.0 | 0.0 | 0.00 | 0.03 | 0.00 | 94 | 1016.3 |
| 20260831070904 | 67 | 248 | 0.0 | 0.0 | 0.00 | 0.03 | 0.00 | 95 | 1016.4 |
| 20260831070403 | 67 | 248 | 0.0 | 0.0 | 0.00 | 0.03 | 0.00 | 95 | 1016.4 |
| 20260831065903 | 67 | 248 | 0.0 | 0.0 | 0.00 | 0.03 | 0.00 | 95 | 1016.4 |
| 20260831065404 | 67 | 248 | 0.0 | 0.0 | 0.00 | 0.03 | 0.00 | 95 | 1016.3 |
| 20260831064904 | 68 | 248 | 0.0 | 0.0 | 0.00 | 0.03 | 0.00 | 95 | 1016.2 |
| 20260831064404 | 68 | 248 | 0.0 | 0.0 | 0.00 | 0.03 | 0.00 | 95 | 1016.4 |
| 20260831063904 | 67 | 248 | 0.0 | 0.0 | 0.00 | 0.03 | 0.00 | 95 | 1016.5 |
| 20260831063404 | 67 | 248 | 0.0 | 0.0 | 0.00 | 0.03 | 0.00 | 95 | 1016.5 |
| 20260831062904 | 67 | 248 | 0.0 | 0.0 | 0.00 | 0.03 | 0.00 | 95 | 1016.6 |
| 20260831062404 | 67 | 248 | 0.0 | 0.0 | 0.00 | 0.03 | 0.00 | 95 | 1016.5 |
| 20260831061904 | 67 | 248 | 0.0 | 0.0 | 0.00 | 0.03 | 0.00 | 95 | 1016.6 |
| 20260831061406 | 67 | 248 | 0.0 | 0.0 | 0.00 | 0.03 | 0.00 | 95 | 1016.6 |
| 20260831060906 | 67 | 248 | 0.0 | 0.0 | 0.00 | 0.03 | 0.00 | 95 | 1016.7 |
| 20260831055906 | 68 | 248 | 0.0 | 0.0 | 0.00 | 0.03 | 0.00 | 95 | 1016.8 |
| 20260831055406 | 68 | 248 | 0.0 | 0.0 | 0.00 | 0.03 | 0.00 | 95 | 1016.8 |
| 20260831054406 | 68 | 248 | 0.0 | 0.0 | 0.00 | 0.03 | 0.00 | 95 | 1016.9 |
| 20260831053906 | 68 | 248 | 0.0 | 0.0 | 0.00 | 0.03 | 0.00 | 95 | 1017.0 |
| 20260831053406 | 68 | 248 | 0.0 | 0.0 | 0.00 | 0.03 | 0.00 | 95 | 1017.0 |
| 20260831051906 | 67 | 248 | 0.0 | 0.0 | 0.00 | 0.03 | 0.00 | 95 | 1017.0 |
| 20260831051406 | 68 | 248 | 0.0 | 0.0 | 0.00 | 0.03 | 0.00 | 95 | 1017.0 |
| 20260831050906 | 68 | 248 | 0.0 | 0.0 | 0.00 | 0.03 | 0.00 | 95 | 1017.4 |
| 20260831050406 | 68 | 248 | 0.0 | 0.0 | 0.00 | 0.03 | 0.00 | 95 | 1017.5 |
| 20260831045406 | 68 | 248 | 0.0 | 0.0 | 0.00 | 0.03 | 0.00 | 95 | 1017.7 |
| 20260831044406 | 68 | 248 | 0.0 | 0.0 | 0.00 | 0.03 | 0.00 | 95 | 1017.7 |
| 20260831043406 | 68 | 248 | 0.0 | 0.0 | 0.00 | 0.03 | 0.00 | 94 | 1017.7 |
| 20260831042906 | 68 | 248 | 0.0 | 0.0 | 0.00 | 0.03 | 0.00 | 94 | 1017.8 |
| 20260831042406 | 68 | 245 | 0.0 | 0.0 | 0.00 | 0.03 | 0.00 | 94 | 1017.8 |
| 20260831041906 | 68 | 245 | 0.0 | 0.0 | 0.00 | 0.03 | 0.00 | 94 | 1017.6 |
| 20260831040406 | 68 | 245 | 0.0 | 0.0 | 0.00 | 0.03 | 0.00 | 94 | 1017.3 |
| 20260831035906 | 68 | 245 | 0.0 | 0.0 | 0.00 | 0.03 | 0.03 | 94 | 1017.3 |
| 20260831035406 | 68 | 245 | 0.0 | 0.0 | 0.00 | 0.03 | 0.03 | 94 | 1017.4 |
| 20260831034905 | 68 | 245 | 0.0 | 0.0 | 0.00 | 0.03 | 0.03 | 94 | 1017.4 |
| 20260831034406 | 68 | 245 | 0.0 | 0.0 | 0.00 | 0.03 | 0.03 | 94 | 1017.4 |
| 20260831033906 | 68 | 245 | 0.0 | 0.0 | 0.00 | 0.03 | 0.03 | 94 | 1017.5 |
| 20260831032906 | 68 | 245 | 0.0 | 0.0 | 0.00 | 0.03 | 0.03 | 94 | 1017.5 |
| 20260831032406 | 68 | 245 | 0.0 | 0.0 | 0.00 | 0.03 | 0.03 | 94 | 1017.6 |
| 20260831031906 | 68 | 245 | 0.0 | 0.0 | 0.00 | 0.03 | 0.03 | 94 | 1017.5 |
| 20260831031406 | 68 | 245 | 0.0 | 0.0 | 0.00 | 0.03 | 0.03 | 94 | 1017.6 |
| 20260831030906 | 68 | 245 | 0.0 | 0.0 | 0.00 | 0.03 | 0.03 | 94 | 1017.7 |
| 20260831030406 | 68 | 245 | 0.0 | 0.0 | 0.00 | 0.03 | 0.03 | 94 | 1017.7 |
| 20260831025906 | 69 | 245 | 0.0 | 0.0 | 0.00 | 0.03 | 0.03 | 94 | 1017.5 |
| 20260831025406 | 69 | 245 | 0.0 | 0.0 | 0.00 | 0.03 | 0.03 | 94 | 1017.7 |
| 20260831024906 | 69 | 245 | 0.0 | 0.0 | 0.00 | 0.03 | 0.03 | 94 | 1017.7 |
| 20260831024406 | 69 | 245 | 0.0 | 0.0 | 0.00 | 0.03 | 0.03 | 94 | 1017.7 |
| 20260831023906 | 69 | 245 | 0.0 | 0.0 | 0.00 | 0.03 | 0.03 | 94 | 1017.8 |
| 20260831023406 | 69 | 245 | 0.0 | 0.0 | 0.00 | 0.03 | 0.03 | 94 | 1017.8 |
| 20260831022906 | 69 | 245 | 0.0 | 0.0 | 0.00 | 0.03 | 0.03 | 94 | 1017.9 |
| 20260831022406 | 69 | 245 | 0.0 | 0.0 | 0.00 | 0.03 | 0.03 | 94 | 1017.9 |
| 20260831021906 | 69 | 245 | 0.0 | 0.0 | 0.00 | 0.03 | 0.03 | 94 | 1018.1 |
| 20260831021406 | 69 | 245 | 0.0 | 0.0 | 0.00 | 0.03 | 0.03 | 94 | 1018.1 |
| 20260831020907 | 69 | 245 | 0.0 | 0.0 | 0.00 | 0.03 | 0.03 | 94 | 1018.2 |
| 20260831020406 | 69 | 245 | 0.0 | 0.0 | 0.00 | 0.03 | 0.03 | 94 | 1018.3 |
| 20260831015906 | 69 | 245 | 0.0 | 0.0 | 0.00 | 0.03 | 0.03 | 94 | 1018.3 |
| 20260831014906 | 69 | 245 | 0.0 | 0.0 | 0.00 | 0.03 | 0.03 | 93 | 1018.3 |
| 20260831014406 | 69 | 245 | 0.0 | 0.0 | 0.00 | 0.03 | 0.03 | 93 | 1018.4 |
| 20260831013906 | 69 | 245 | 0.0 | 0.0 | 0.01 | 0.03 | 0.03 | 93 | 1018.4 |
| 20260831013406 | 69 | 245 | 0.0 | 0.0 | 0.01 | 0.03 | 0.03 | 93 | 1018.5 |
| 20260831012906 | 69 | 245 | 0.0 | 0.0 | 0.01 | 0.03 | 0.03 | 93 | 1018.5 |
| 20260831012407 | 69 | 245 | 0.0 | 0.0 | 0.01 | 0.03 | 0.03 | 93 | 1018.4 |
| 20260831011906 | 69 | 245 | 0.0 | 0.0 | 0.01 | 0.03 | 0.03 | 94 | 1018.5 |
| 20260831011406 | 70 | 245 | 0.0 | 0.0 | 0.01 | 0.03 | 0.03 | 93 | 1018.4 |
| 20260831010406 | 70 | 245 | 0.0 | 0.0 | 0.01 | 0.03 | 0.03 | 93 | 1018.4 |
| 20260831005906 | 70 | 245 | 0.0 | 0.0 | 0.01 | 0.03 | 0.03 | 93 | 1018.3 |
| 20260831005406 | 70 | 245 | 0.0 | 0.0 | 0.01 | 0.03 | 0.03 | 93 | 1018.3 |
| 20260831004906 | 70 | 245 | 0.0 | 0.0 | 0.01 | 0.03 | 0.03 | 93 | 1018.2 |
| 20260831004406 | 70 | 245 | 0.0 | 0.0 | 0.01 | 0.03 | 0.03 | 93 | 1018.1 |
| 20260831003906 | 70 | 245 | 0.0 | 0.0 | 0.00 | 0.02 | 0.02 | 93 | 1018.0 |
| 20260831003406 | 70 | 245 | 0.0 | 0.0 | 0.00 | 0.02 | 0.02 | 93 | 1017.9 |
| 20260831002906 | 70 | 245 | 0.0 | 0.0 | 0.00 | 0.02 | 0.02 | 92 | 1017.9 |
| 20260831002406 | 70 | 245 | 0.0 | 0.0 | 0.00 | 0.02 | 0.02 | 92 | 1017.7 |
| 20260831001905 | 71 | 245 | 0.0 | 0.0 | 0.00 | 0.02 | 0.02 | 92 | 1017.6 |
| 20260831001406 | 71 | 245 | 0.0 | 0.0 | 0.00 | 0.02 | 0.02 | 92 | 1017.5 |
| 20260831000405 | 71 | 245 | 0.0 | 0.0 | 0.00 | 0.02 | 0.02 | 92 | 1017.6 |
| 20260830235906 | 71 | 245 | 0.0 | 0.0 | 0.00 | 0.02 | 0.02 | 92 | 1017.5 |
| 20260830235406 | 71 | 245 | 0.0 | 0.0 | 0.00 | 0.02 | 0.02 | 92 | 1017.3 |
| 20260830234906 | 71 | 245 | 0.0 | 0.0 | 0.00 | 0.02 | 0.02 | 92 | 1017.2 |
| 20260830234406 | 71 | 245 | 0.0 | 0.0 | 0.00 | 0.02 | 0.02 | 91 | 1017.0 |
| 20260830233906 | 71 | 245 | 0.0 | 0.0 | 0.00 | 0.02 | 0.02 | 91 | 1017.0 |
| 20260830233406 | 71 | 245 | 0.0 | 0.0 | 0.00 | 0.02 | 0.02 | 91 | 1016.9 |
| 20260830232906 | 71 | 245 | 0.0 | 0.0 | 0.00 | 0.02 | 0.02 | 91 | 1016.8 |
| 20260830232406 | 71 | 245 | 0.0 | 0.0 | 0.00 | 0.02 | 0.02 | 90 | 1016.7 |
| 20260830231905 | 71 | 245 | 0.0 | 0.0 | 0.00 | 0.02 | 0.02 | 90 | 1016.7 |
| 20260830231406 | 72 | 245 | 0.0 | 0.0 | 0.00 | 0.02 | 0.02 | 90 | 1016.5 |
| 20260830230906 | 72 | 245 | 0.0 | 0.0 | 0.00 | 0.02 | 0.02 | 90 | 1016.4 |
| 20260830230405 | 72 | 245 | 0.0 | 0.0 | 0.00 | 0.02 | 0.02 | 90 | 1016.6 |
| 20260830225406 | 72 | 245 | 0.0 | 0.0 | 0.00 | 0.02 | 0.02 | 88 | 1016.6 |